| time (UTC) | temp C | wind direction | speed KPH | gust KPH | rain 1hr cm | rain 24hr cm | rain mn cm | humidity % | barometer mb |
| 20260906203001 | 26 | 134 | 0.0 | 0.0 | 0.00 | 0.00 | 0.00 | 72 | 1014.8 |
| 20260906202500 | 26 | 123 | 0.0 | 0.0 | 0.00 | 0.00 | 0.00 | 73 | 1014.8 |
| 20260906201001 | 27 | 232 | 0.0 | 0.0 | 0.00 | 0.00 | 0.00 | 72 | 1014.7 |
| 20260906200501 | 26 | 229 | 0.0 | 0.0 | 0.00 | 0.00 | 0.00 | 73 | 1015.0 |
| 20260906200004 | 26 | 173 | 0.0 | 0.0 | 0.00 | 0.00 | 0.00 | 74 | 1014.9 |
| 20260906195501 | 26 | 167 | 0.0 | 0.0 | 0.00 | 0.00 | 0.00 | 75 | 1015.1 |
| 20260906195001 | 26 | 150 | 0.0 | 0.0 | 0.00 | 0.00 | 0.00 | 75 | 1015.2 |
| 20260906194001 | 26 | 195 | 0.0 | 0.0 | 0.00 | 0.00 | 0.00 | 75 | 1015.5 |
| 20260906193500 | 26 | 194 | 0.0 | 0.0 | 0.00 | 0.00 | 0.00 | 75 | 1015.5 |
| 20260906193001 | 26 | 154 | 0.0 | 0.0 | 0.00 | 0.00 | 0.00 | 76 | 1015.7 |
| 20260906192500 | 26 | 239 | 0.0 | 0.0 | 0.00 | 0.00 | 0.00 | 77 | 1015.7 |
| 20260906192001 | 26 | 146 | 0.0 | 0.0 | 0.00 | 0.00 | 0.00 | 77 | 1015.6 |
| 20260906191500 | 25 | 140 | 0.0 | 0.0 | 0.00 | 0.00 | 0.00 | 78 | 1015.5 |
| 20260906191001 | 25 | 301 | 0.0 | 0.0 | 0.00 | 0.00 | 0.00 | 78 | 1015.5 |
| 20260906190500 | 25 | 301 | 0.0 | 0.0 | 0.00 | 0.00 | 0.00 | 77 | 1015.5 |
| 20260906190004 | 25 | 268 | 0.0 | 0.0 | 0.00 | 0.00 | 0.00 | 78 | 1015.4 |
| 20260906185500 | 25 | 268 | 0.0 | 0.0 | 0.00 | 0.00 | 0.00 | 80 | 1015.3 |
| 20260906185001 | 25 | 283 | 0.0 | 0.0 | 0.00 | 0.00 | 0.00 | 79 | 1015.6 |
| 20260906184500 | 24 | 295 | 0.0 | 0.0 | 0.00 | 0.00 | 0.00 | 79 | 1015.6 |
| 20260906184001 | 24 | 269 | 0.0 | 0.0 | 0.00 | 0.00 | 0.00 | 81 | 1015.4 |
| 20260906183500 | 24 | 295 | 0.0 | 0.0 | 0.00 | 0.00 | 0.00 | 80 | 1015.3 |
| 20260906183001 | 24 | 264 | 0.0 | 0.0 | 0.00 | 0.00 | 0.00 | 81 | 1015.3 |
| 20260906182500 | 23 | 257 | 0.0 | 0.0 | 0.00 | 0.00 | 0.00 | 81 | 1015.3 |
| 20260906181500 | 23 | 288 | 0.0 | 0.0 | 0.00 | 0.00 | 0.00 | 82 | 1015.0 |
| 20260906181001 | 23 | 274 | 0.0 | 0.0 | 0.00 | 0.00 | 0.00 | 83 | 1015.1 |
| 20260906180500 | 23 | 297 | 0.0 | 0.0 | 0.00 | 0.00 | 0.00 | 83 | 1015.2 |
| 20260906180006 | 23 | 307 | 0.0 | 0.0 | 0.00 | 0.00 | 0.00 | 84 | 1015.2 |
| 20260906175500 | 24 | 304 | 0.0 | 0.0 | 0.00 | 0.00 | 0.00 | 84 | 1015.0 |
| 20260906175001 | 24 | 283 | 0.0 | 0.0 | 0.00 | 0.00 | 0.00 | 85 | 1014.8 |
| 20260906174500 | 24 | 300 | 0.0 | 0.0 | 0.00 | 0.00 | 0.00 | 84 | 1015.0 |
| 20260906174001 | 24 | 293 | 0.0 | 0.0 | 0.00 | 0.00 | 0.00 | 84 | 1014.9 |
| 20260906173500 | 24 | 254 | 0.0 | 0.0 | 0.00 | 0.00 | 0.00 | 84 | 1015.0 |
| 20260906173002 | 24 | 266 | 0.0 | 0.0 | 0.00 | 0.00 | 0.00 | 85 | 1014.9 |
| 20260906172500 | 24 | 262 | 0.0 | 0.0 | 0.00 | 0.00 | 0.00 | 86 | 1014.9 |
| 20260906172002 | 24 | 264 | 0.0 | 0.0 | 0.00 | 0.00 | 0.00 | 86 | 1015.0 |
| 20260906171500 | 24 | 266 | 0.0 | 0.0 | 0.00 | 0.00 | 0.00 | 87 | 1015.0 |
| 20260906171001 | 24 | 259 | 0.0 | 0.0 | 0.00 | 0.00 | 0.00 | 89 | 1015.4 |
| 20260906170500 | 24 | 134 | 0.0 | 0.0 | 0.00 | 0.00 | 0.00 | 91 | 1015.6 |
| 20260906165500 | 24 | 221 | 0.0 | 0.0 | 0.00 | 0.00 | 0.00 | 94 | 1015.6 |
| 20260906165001 | 24 | 229 | 0.0 | 0.0 | 0.00 | 0.00 | 0.00 | 94 | 1015.7 |
| 20260906164500 | 25 | 258 | 0.0 | 0.0 | 0.00 | 0.00 | 0.00 | 94 | 1015.6 |
| 20260906164001 | 25 | 230 | 0.0 | 0.0 | 0.00 | 0.00 | 0.00 | 94 | 1015.8 |
| 20260906163500 | 25 | 219 | 0.0 | 0.0 | 0.00 | 0.00 | 0.00 | 94 | 1015.7 |
| 20260906163001 | 25 | 226 | 0.0 | 0.0 | 0.00 | 0.00 | 0.00 | 95 | 1015.7 |
| 20260906162500 | 25 | 239 | 0.0 | 0.0 | 0.00 | 0.00 | 0.00 | 95 | 1015.9 |
| 20260906162001 | 25 | 214 | 0.0 | 0.0 | 0.00 | 0.00 | 0.00 | 95 | 1016.0 |
| 20260906161501 | 25 | 223 | 0.0 | 0.0 | 0.00 | 0.00 | 0.00 | 95 | 1016.1 |
| 20260906161001 | 25 | 207 | 0.0 | 0.0 | 0.00 | 0.00 | 0.00 | 95 | 1016.1 |
| 20260906160500 | 25 | 227 | 0.0 | 0.0 | 0.00 | 0.00 | 0.00 | 95 | 1015.9 |
| 20260906160005 | 25 | 179 | 0.0 | 0.0 | 0.00 | 0.00 | 0.00 | 95 | 1015.8 |
| 20260906155500 | 25 | 215 | 0.0 | 0.0 | 0.00 | 0.00 | 0.00 | 95 | 1015.7 |
| 20260906154500 | 25 | 151 | 0.0 | 0.0 | 0.00 | 0.00 | 0.00 | 95 | 1015.8 |
| 20260906154001 | 25 | 177 | 0.0 | 0.0 | 0.00 | 0.00 | 0.00 | 95 | 1015.8 |
| 20260906153001 | 25 | 194 | 0.0 | 0.0 | 0.00 | 0.00 | 0.00 | 95 | 1015.5 |
| 20260906152500 | 25 | 152 | 0.0 | 0.0 | 0.00 | 0.00 | 0.00 | 95 | 1015.5 |
| 20260906151500 | 25 | 164 | 0.0 | 0.0 | 0.00 | 0.00 | 0.00 | 95 | 1015.2 |
| 20260906150500 | 25 | 161 | 0.0 | 0.0 | 0.00 | 0.00 | 0.00 | 95 | 1014.9 |
| 20260906150002 | 25 | 122 | 0.0 | 0.0 | 0.00 | 0.00 | 0.00 | 95 | 1015.0 |
| 20260906145001 | 25 | 133 | 0.0 | 0.0 | 0.00 | 0.00 | 0.00 | 95 | 1014.9 |
| 20260906143500 | 25 | 115 | 0.0 | 0.0 | 0.00 | 0.00 | 0.00 | 96 | 1014.9 |
| 20260906143001 | 25 | 134 | 0.0 | 0.0 | 0.00 | 0.00 | 0.00 | 96 | 1015.1 |
| 20260906142500 | 25 | 124 | 0.0 | 0.0 | 0.00 | 0.00 | 0.00 | 96 | 1015.0 |
| 20260906142003 | 25 | 117 | 0.0 | 0.0 | 0.00 | 0.00 | 0.00 | 96 | 1014.9 |
| 20260906141500 | 24 | 103 | 0.0 | 0.0 | 0.00 | 0.00 | 0.00 | 97 | 1014.7 |
| 20260906141001 | 24 | 133 | 0.0 | 0.0 | 0.00 | 0.00 | 0.00 | 98 | 1014.7 |
| 20260906140001 | 23 | 131 | 0.0 | 0.0 | 0.00 | 0.00 | 0.00 | 98 | 1014.6 |
| 20260906135500 | 23 | 126 | 0.0 | 0.0 | 0.00 | 0.00 | 0.00 | 99 | 1014.8 |
| 20260906135001 | 23 | 100 | 0.0 | 0.0 | 0.00 | 0.00 | 0.00 | 99 | 1014.9 |
| 20260906134500 | 23 | 104 | 0.0 | 0.0 | 0.00 | 0.00 | 0.00 | 99 | 1014.8 |
| 20260906134001 | 23 | 112 | 0.0 | 0.0 | 0.00 | 0.00 | 0.00 | 99 | 1014.8 |
| 20260906133500 | 22 | 122 | 0.0 | 0.0 | 0.00 | 0.00 | 0.00 | 99 | 1014.8 |
| 20260906132500 | 22 | 122 | 0.0 | 0.0 | 0.00 | 0.00 | 0.00 | 99 | 1014.6 |
| 20260906132001 | 22 | 123 | 0.0 | 0.0 | 0.00 | 0.00 | 0.00 | 100 | 1014.6 |
| 20260906131500 | 22 | 99 | 0.0 | 0.0 | 0.00 | 0.00 | 0.00 | 100 | 1014.5 |
| 20260906131002 | 22 | 91 | 0.0 | 0.0 | 0.00 | 0.00 | 0.00 | 100 | 1014.4 |
| 20260906130500 | 22 | 96 | 0.0 | 0.0 | 0.00 | 0.00 | 0.00 | 100 | 1014.7 |
| 20260906130002 | 22 | 117 | 0.0 | 0.0 | 0.00 | 0.00 | 0.00 | 100 | 1014.5 |
| 20260906125500 | 22 | 117 | 0.0 | 0.0 | 0.00 | 0.00 | 0.00 | 100 | 1014.3 |
| 20260906125000 | 22 | 114 | 0.0 | 0.0 | 0.00 | 0.00 | 0.00 | 100 | 1014.2 |
| 20260906124500 | 22 | 85 | 0.0 | 0.0 | 0.00 | 0.00 | 0.00 | 100 | 1014.1 |
| 20260906124001 | 22 | 105 | 0.0 | 0.0 | 0.00 | 0.00 | 0.00 | 100 | 1013.9 |
| 20260906123500 | 21 | 103 | 0.0 | 0.0 | 0.00 | 0.00 | 0.00 | 100 | 1013.8 |
| 20260906123001 | 21 | 91 | 0.0 | 0.0 | 0.00 | 0.00 | 0.00 | 99 | 1013.8 |
| 20260906122501 | 21 | 103 | 0.0 | 0.0 | 0.00 | 0.00 | 0.00 | 99 | 1013.7 |
| 20260906122001 | 21 | 120 | 0.0 | 0.0 | 0.00 | 0.00 | 0.00 | 99 | 1013.6 |
| 20260906121500 | 21 | 127 | 0.0 | 0.0 | 0.00 | 0.00 | 0.00 | 99 | 1013.5 |
| 20260906121001 | 21 | 127 | 0.0 | 0.0 | 0.00 | 0.00 | 0.00 | 99 | 1013.4 |
| 20260906120500 | 21 | 136 | 0.0 | 0.0 | 0.00 | 0.00 | 0.00 | 99 | 1013.3 |
| 20260906120002 | 21 | 128 | 0.0 | 0.0 | 0.00 | 0.00 | 0.00 | 99 | 1013.3 |
| 20260906115500 | 21 | 131 | 0.0 | 0.0 | 0.00 | 0.00 | 0.00 | 99 | 1013.3 |
| 20260906114500 | 21 | 129 | 0.0 | 0.0 | 0.00 | 0.00 | 0.00 | 99 | 1013.6 |
| 20260906114000 | 22 | 109 | 0.0 | 0.0 | 0.00 | 0.00 | 0.00 | 99 | 1013.6 |
| 20260906113500 | 22 | 130 | 0.0 | 0.0 | 0.00 | 0.00 | 0.00 | 99 | 1013.5 |
| 20260906113001 | 22 | 127 | 0.0 | 0.0 | 0.00 | 0.00 | 0.00 | 99 | 1013.4 |
| 20260906112459 | 22 | 129 | 0.0 | 0.0 | 0.00 | 0.00 | 0.00 | 99 | 1013.4 |
| 20260906112000 | 22 | 127 | 0.0 | 0.0 | 0.00 | 0.00 | 0.00 | 99 | 1013.5 |
| 20260906111500 | 22 | 126 | 0.0 | 0.0 | 0.00 | 0.00 | 0.00 | 99 | 1013.5 |
| 20260906111001 | 21 | 105 | 0.0 | 0.0 | 0.00 | 0.00 | 0.00 | 99 | 1013.6 |
| 20260906110459 | 21 | 122 | 0.0 | 0.0 | 0.00 | 0.00 | 0.00 | 99 | 1013.6 |
| 20260906105500 | 21 | 120 | 0.0 | 0.0 | 0.00 | 0.05 | 0.00 | 99 | 1013.8 |
| 20260906105000 | 21 | 103 | 0.0 | 0.0 | 0.00 | 0.05 | 0.00 | 99 | 1013.8 |
| 20260906104500 | 21 | 124 | 0.0 | 0.0 | 0.00 | 0.05 | 0.00 | 99 | 1013.7 |
| 20260906104001 | 21 | 120 | 0.0 | 0.0 | 0.00 | 0.05 | 0.00 | 99 | 1013.8 |
| 20260906103500 | 21 | 130 | 0.0 | 0.0 | 0.00 | 0.05 | 0.00 | 98 | 1013.9 |
| 20260906103001 | 21 | 125 | 0.0 | 0.0 | 0.00 | 0.05 | 0.00 | 98 | 1013.9 |
| 20260906102500 | 21 | 125 | 0.0 | 0.0 | 0.00 | 0.05 | 0.00 | 98 | 1013.9 |
| 20260906102000 | 21 | 133 | 0.0 | 0.0 | 0.00 | 0.05 | 0.00 | 98 | 1013.8 |
| 20260906101500 | 21 | 124 | 0.0 | 0.0 | 0.00 | 0.05 | 0.00 | 98 | 1013.8 |
| 20260906100500 | 21 | 137 | 0.0 | 0.0 | 0.00 | 0.05 | 0.00 | 98 | 1013.8 |
| 20260906095001 | 21 | 127 | 0.0 | 0.0 | 0.00 | 0.08 | 0.00 | 98 | 1013.9 |
| 20260906094500 | 21 | 118 | 0.0 | 0.0 | 0.00 | 0.08 | 0.00 | 98 | 1014.1 |
| 20260906094000 | 21 | 133 | 0.0 | 0.0 | 0.00 | 0.08 | 0.00 | 97 | 1014.1 |
| 20260906093000 | 21 | 130 | 0.0 | 0.0 | 0.00 | 0.08 | 0.00 | 97 | 1014.1 |
| 20260906092001 | 21 | 100 | 0.0 | 0.0 | 0.00 | 0.08 | 0.00 | 98 | 1014.2 |
| 20260906091500 | 21 | 110 | 0.0 | 0.0 | 0.00 | 0.08 | 0.00 | 97 | 1014.2 |
| 20260906091000 | 21 | 110 | 0.0 | 0.0 | 0.00 | 0.08 | 0.00 | 97 | 1014.2 |
| 20260906090459 | 21 | 110 | 0.0 | 0.0 | 0.00 | 0.08 | 0.00 | 97 | 1014.3 |
| 20260906090001 | 21 | 110 | 0.0 | 0.0 | 0.00 | 0.10 | 0.00 | 98 | 1014.2 |
| 20260906085500 | 21 | 110 | 0.0 | 0.0 | 0.00 | 0.10 | 0.00 | 98 | 1014.3 |
| 20260906084500 | 21 | 123 | 0.0 | 0.0 | 0.00 | 0.10 | 0.00 | 97 | 1014.1 |
| 20260906084000 | 21 | 123 | 0.0 | 0.0 | 0.00 | 0.10 | 0.00 | 97 | 1014.0 |
| 20260906083001 | 21 | 123 | 0.0 | 0.0 | 0.00 | 0.10 | 0.00 | 97 | 1013.8 |
| 20260906082500 | 21 | 124 | 0.0 | 0.0 | 0.00 | 0.10 | 0.00 | 96 | 1013.8 |
| 20260906082000 | 21 | 113 | 0.0 | 0.0 | 0.00 | 0.10 | 0.00 | 96 | 1013.8 |
| 20260906081500 | 21 | 110 | 0.0 | 0.0 | 0.00 | 0.10 | 0.00 | 96 | 1013.6 |
| 20260906081001 | 21 | 125 | 0.0 | 0.0 | 0.00 | 0.10 | 0.00 | 95 | 1013.6 |
| 20260906080500 | 21 | 126 | 0.0 | 0.0 | 0.00 | 0.10 | 0.00 | 94 | 1013.5 |
| 20260906080002 | 21 | 126 | 0.0 | 0.0 | 0.00 | 0.10 | 0.00 | 94 | 1013.5 |
| 20260906075459 | 21 | 126 | 0.0 | 0.0 | 0.00 | 0.10 | 0.00 | 94 | 1013.4 |
| 20260906075000 | 22 | 126 | 0.0 | 0.0 | 0.00 | 0.10 | 0.00 | 94 | 1013.4 |
| 20260906074000 | 22 | 126 | 0.0 | 0.0 | 0.00 | 0.10 | 0.00 | 93 | 1013.4 |
| 20260906073500 | 22 | 127 | 0.0 | 0.0 | 0.00 | 0.10 | 0.00 | 93 | 1013.4 |
| 20260906073001 | 22 | 127 | 0.0 | 0.0 | 0.00 | 0.10 | 0.00 | 92 | 1013.5 |
| 20260906072459 | 22 | 139 | 0.0 | 0.0 | 0.00 | 0.10 | 0.00 | 93 | 1013.5 |
| 20260906072001 | 22 | 127 | 0.0 | 0.0 | 0.00 | 0.10 | 0.00 | 93 | 1013.4 |
| 20260906071000 | 22 | 153 | 0.0 | 0.0 | 0.00 | 0.10 | 0.00 | 92 | 1013.4 |
| 20260906070500 | 22 | 131 | 0.0 | 0.0 | 0.00 | 0.10 | 0.00 | 92 | 1013.4 |
| 20260906070002 | 22 | 128 | 0.0 | 0.0 | 0.00 | 0.10 | 0.00 | 91 | 1013.4 |
| 20260906065500 | 22 | 143 | 0.0 | 0.0 | 0.00 | 0.10 | 0.00 | 91 | 1013.4 |
| 20260906065000 | 22 | 125 | 0.0 | 0.0 | 0.00 | 0.10 | 0.00 | 91 | 1013.4 |
| 20260906064459 | 22 | 158 | 0.0 | 0.0 | 0.00 | 0.10 | 0.00 | 90 | 1013.5 |
| 20260906063500 | 22 | 215 | 0.0 | 0.0 | 0.00 | 0.10 | 0.00 | 90 | 1013.4 |
| 20260906063000 | 23 | 160 | 0.0 | 0.0 | 0.00 | 0.10 | 0.00 | 90 | 1013.3 |
| 20260906062500 | 23 | 151 | 0.0 | 0.0 | 0.00 | 0.10 | 0.00 | 89 | 1013.5 |
| 20260906061459 | 23 | 129 | 0.0 | 0.0 | 0.00 | 0.10 | 0.00 | 89 | 1013.5 |
| 20260906060459 | 23 | 115 | 0.0 | 0.0 | 0.00 | 0.10 | 0.00 | 88 | 1013.6 |
| 20260906060001 | 23 | 161 | 0.0 | 0.0 | 0.00 | 0.10 | 0.00 | 87 | 1013.6 |
| 20260906055500 | 23 | 155 | 0.0 | 0.0 | 0.00 | 0.10 | 0.00 | 87 | 1013.6 |
| 20260906055000 | 23 | 131 | 0.0 | 0.0 | 0.00 | 0.10 | 0.00 | 86 | 1013.5 |
| 20260906054000 | 25 | 146 | 0.0 | 0.0 | 0.00 | 0.10 | 0.00 | 83 | 1013.4 |
| 20260906053500 | 25 | 141 | 0.0 | 0.0 | 0.00 | 0.10 | 0.00 | 82 | 1013.4 |
| 20260906053000 | 25 | 171 | 0.0 | 0.0 | 0.00 | 0.10 | 0.00 | 82 | 1013.5 |
| 20260906052500 | 25 | 153 | 0.0 | 0.0 | 0.00 | 0.10 | 0.00 | 82 | 1013.4 |
| 20260906052000 | 25 | 158 | 0.0 | 0.0 | 0.00 | 0.10 | 0.00 | 82 | 1013.6 |
| 20260906051500 | 25 | 143 | 0.0 | 0.0 | 0.00 | 0.10 | 0.00 | 82 | 1013.5 |
| 20260906051001 | 25 | 158 | 0.0 | 0.0 | 0.00 | 0.10 | 0.00 | 83 | 1013.5 |
| 20260906050500 | 25 | 154 | 0.0 | 0.0 | 0.00 | 0.10 | 0.00 | 83 | 1013.5 |
| 20260906050006 | 25 | 133 | 0.0 | 0.0 | 0.00 | 0.10 | 0.00 | 83 | 1013.6 |
| 20260906045501 | 25 | 161 | 0.0 | 0.0 | 0.00 | 0.10 | 0.10 | 83 | 1013.6 |
| 20260906044501 | 25 | 149 | 0.0 | 0.0 | 0.00 | 0.10 | 0.10 | 83 | 1013.4 |
| 20260906043501 | 25 | 171 | 0.0 | 0.0 | 0.00 | 0.10 | 0.10 | 83 | 1013.6 |
| 20260906043002 | 25 | 138 | 0.0 | 0.0 | 0.00 | 0.10 | 0.10 | 83 | 1013.7 |
| 20260906042002 | 25 | 163 | 0.0 | 0.0 | 0.00 | 0.10 | 0.10 | 83 | 1013.3 |
| 20260906041459 | 25 | 132 | 0.0 | 0.0 | 0.00 | 0.10 | 0.10 | 83 | 1012.8 |
| 20260906041002 | 25 | 155 | 0.0 | 0.0 | 0.00 | 0.10 | 0.10 | 83 | 1012.9 |
| 20260906040501 | 25 | 122 | 0.0 | 0.0 | 0.00 | 0.10 | 0.10 | 83 | 1013.0 |
| 20260906040004 | 25 | 150 | 0.0 | 0.0 | 0.00 | 0.10 | 0.10 | 84 | 1012.8 |
| 20260906035501 | 25 | 145 | 0.0 | 0.0 | 0.00 | 0.10 | 0.10 | 84 | 1013.0 |
| 20260906035002 | 25 | 166 | 0.0 | 0.0 | 0.00 | 0.10 | 0.10 | 84 | 1013.1 |
| 20260906034501 | 25 | 166 | 0.0 | 0.0 | 0.00 | 0.10 | 0.10 | 84 | 1013.1 |
| 20260906034002 | 24 | 170 | 0.0 | 0.0 | 0.00 | 0.10 | 0.10 | 84 | 1012.8 |
| 20260906033502 | 24 | 148 | 0.0 | 0.0 | 0.00 | 0.10 | 0.10 | 85 | 1012.6 |
| 20260906033002 | 24 | 123 | 0.0 | 0.0 | 0.00 | 0.10 | 0.10 | 84 | 1012.6 |
| 20260906032002 | 24 | 88 | 0.0 | 0.0 | 0.00 | 0.10 | 0.10 | 85 | 1012.5 |
| 20260906031501 | 24 | 86 | 0.0 | 0.0 | 0.00 | 0.10 | 0.10 | 86 | 1012.5 |
| 20260906030501 | 24 | 97 | 0.0 | 0.0 | 0.00 | 0.10 | 0.10 | 87 | 1012.7 |
| 20260906030007 | 24 | 85 | 0.0 | 0.0 | 0.00 | 0.10 | 0.10 | 87 | 1013.0 |
| 20260906025501 | 25 | 90 | 0.0 | 0.0 | 0.00 | 0.10 | 0.10 | 86 | 1013.2 |
| 20260906025002 | 25 | 133 | 0.0 | 0.0 | 0.00 | 0.10 | 0.10 | 85 | 1013.4 |
| 20260906024501 | 25 | 143 | 0.0 | 0.0 | 0.00 | 0.10 | 0.10 | 84 | 1013.5 |
| 20260906023501 | 25 | 143 | 0.0 | 0.0 | 0.00 | 0.10 | 0.10 | 83 | 1013.3 |
| 20260906023002 | 25 | 143 | 0.0 | 0.0 | 0.00 | 0.10 | 0.10 | 83 | 1013.3 |
| 20260906022501 | 25 | 143 | 0.0 | 0.0 | 0.00 | 0.10 | 0.10 | 83 | 1013.3 |
| 20260906022002 | 25 | 143 | 0.0 | 0.0 | 0.00 | 0.10 | 0.10 | 84 | 1013.3 |
| 20260906021001 | 25 | 149 | 0.0 | 0.0 | 0.00 | 0.10 | 0.10 | 86 | 1013.1 |
| 20260906020501 | 25 | 133 | 0.0 | 0.0 | 0.00 | 0.10 | 0.10 | 86 | 1013.4 |
| 20260906020004 | 25 | 133 | 0.0 | 0.0 | 0.00 | 0.10 | 0.10 | 86 | 1013.2 |
| 20260906015001 | 25 | 133 | 0.0 | 0.0 | 0.00 | 0.10 | 0.10 | 86 | 1013.5 |
| 20260906014501 | 25 | 133 | 0.0 | 0.0 | 0.00 | 0.10 | 0.10 | 86 | 1013.5 |
| 20260906014001 | 25 | 133 | 0.0 | 0.0 | 0.00 | 0.10 | 0.10 | 86 | 1013.7 |
| 20260906013501 | 25 | 133 | 0.0 | 0.0 | 0.00 | 0.10 | 0.10 | 85 | 1013.7 |
| 20260906013002 | 25 | 133 | 0.0 | 0.0 | 0.00 | 0.10 | 0.10 | 85 | 1013.8 |
| 20260906012501 | 25 | 133 | 0.0 | 0.0 | 0.00 | 0.10 | 0.10 | 85 | 1013.7 |
| 20260906012002 | 25 | 133 | 0.0 | 0.0 | 0.00 | 0.10 | 0.10 | 85 | 1013.6 |
| 20260906011501 | 25 | 133 | 0.0 | 0.0 | 0.00 | 0.10 | 0.10 | 85 | 1013.6 |
| 20260906011001 | 25 | 133 | 0.0 | 0.0 | 0.00 | 0.10 | 0.10 | 84 | 1013.6 |
| 20260906010501 | 26 | 133 | 0.0 | 0.0 | 0.00 | 0.10 | 0.10 | 83 | 1013.6 |
| 20260906010006 | 26 | 133 | 0.0 | 0.0 | 0.00 | 0.10 | 0.10 | 82 | 1013.4 |
| 20260906005501 | 26 | 133 | 0.0 | 0.0 | 0.00 | 0.10 | 0.10 | 82 | 1013.3 |
| 20260906005001 | 26 | 133 | 0.0 | 0.0 | 0.00 | 0.10 | 0.10 | 81 | 1013.4 |
| 20260906004501 | 26 | 133 | 0.0 | 0.0 | 0.00 | 0.10 | 0.10 | 81 | 1013.4 |
| 20260906004002 | 27 | 133 | 0.0 | 0.0 | 0.00 | 0.10 | 0.10 | 79 | 1013.4 |
| 20260906003501 | 27 | 134 | 0.0 | 0.0 | 0.00 | 0.10 | 0.10 | 76 | 1013.5 |
| 20260906003002 | 27 | 134 | 0.0 | 0.0 | 0.00 | 0.10 | 0.10 | 76 | 1013.5 |
| 20260906002501 | 27 | 134 | 0.0 | 0.0 | 0.00 | 0.10 | 0.10 | 76 | 1013.6 |
| 20260906002001 | 27 | 134 | 0.0 | 0.0 | 0.00 | 0.10 | 0.10 | 76 | 1013.5 |
| 20260906001501 | 27 | 134 | 0.0 | 0.0 | 0.00 | 0.10 | 0.10 | 75 | 1013.2 |
| 20260906001002 | 28 | 134 | 0.0 | 0.0 | 0.00 | 0.10 | 0.10 | 75 | 1013.1 |
| 20260906000501 | 28 | 134 | 0.0 | 0.0 | 0.00 | 0.10 | 0.10 | 75 | 1013.2 |
| 20260906000008 | 28 | 133 | 0.0 | 0.0 | 0.00 | 0.10 | 0.10 | 74 | 1013.0 |
| 20260905235501 | 28 | 136 | 0.0 | 0.0 | 0.00 | 0.10 | 0.10 | 73 | 1013.0 |
| 20260905235002 | 28 | 127 | 0.0 | 0.0 | 0.00 | 0.10 | 0.10 | 73 | 1013.1 |
| 20260905233501 | 29 | 161 | 0.0 | 0.0 | 0.00 | 0.10 | 0.10 | 71 | 1013.1 |
| 20260905233001 | 30 | 164 | 0.0 | 0.0 | 0.00 | 0.10 | 0.10 | 70 | 1013.0 |
| 20260905232501 | 30 | 146 | 0.0 | 0.0 | 0.00 | 0.10 | 0.10 | 69 | 1012.8 |
| 20260905232002 | 30 | 157 | 0.0 | 0.0 | 0.00 | 0.10 | 0.10 | 68 | 1012.6 |
| 20260905231003 | 31 | 150 | 0.0 | 0.0 | 0.00 | 0.10 | 0.10 | 65 | 1012.4 |
| 20260905230500 | 31 | 159 | 0.0 | 0.0 | 0.00 | 0.10 | 0.10 | 64 | 1012.2 |
| 20260905230004 | 31 | 141 | 0.0 | 0.0 | 0.00 | 0.10 | 0.10 | 64 | 1012.0 |
| 20260905225501 | 31 | 144 | 0.0 | 0.0 | 0.00 | 0.10 | 0.10 | 64 | 1011.8 |
| 20260905225001 | 31 | 121 | 0.0 | 0.0 | 0.00 | 0.10 | 0.10 | 63 | 1011.7 |
| 20260905224002 | 31 | 107 | 0.0 | 0.0 | 0.00 | 0.10 | 0.10 | 63 | 1011.5 |
| 20260905223501 | 32 | 131 | 0.0 | 0.0 | 0.00 | 0.10 | 0.10 | 63 | 1011.3 |
| 20260905223002 | 32 | 129 | 0.0 | 0.0 | 0.00 | 0.10 | 0.10 | 62 | 1011.5 |
| 20260905222501 | 32 | 130 | 0.0 | 0.0 | 0.00 | 0.10 | 0.10 | 60 | 1011.5 |
| 20260905222001 | 32 | 122 | 0.0 | 0.0 | 0.00 | 0.10 | 0.10 | 61 | 1011.5 |
| 20260905221501 | 32 | 124 | 0.0 | 0.0 | 0.00 | 0.10 | 0.10 | 60 | 1011.5 |
| 20260905215501 | 32 | 136 | 0.0 | 0.0 | 0.00 | 0.10 | 0.10 | 60 | 1012.0 |
| 20260905215002 | 32 | 117 | 0.0 | 0.0 | 0.00 | 0.10 | 0.10 | 60 | 1012.0 |
| 20260905214501 | 32 | 132 | 0.0 | 0.0 | 0.00 | 0.10 | 0.10 | 60 | 1011.8 |
| 20260905214002 | 32 | 125 | 0.0 | 0.0 | 0.00 | 0.10 | 0.10 | 60 | 1012.0 |
| 20260905213500 | 32 | 137 | 0.0 | 0.0 | 0.00 | 0.10 | 0.10 | 58 | 1012.0 |
| 20260905213002 | 33 | 110 | 0.0 | 0.0 | 0.00 | 0.10 | 0.10 | 59 | 1011.8 |
| 20260905212501 | 33 | 122 | 0.0 | 0.0 | 0.00 | 0.10 | 0.10 | 59 | 1011.9 |
| 20260905212001 | 33 | 124 | 0.0 | 0.0 | 0.00 | 0.10 | 0.10 | 60 | 1012.0 |
| 20260905211501 | 33 | 156 | 0.0 | 0.0 | 0.00 | 0.10 | 0.10 | 60 | 1012.0 |
| 20260905211001 | 32 | 109 | 0.0 | 0.0 | 0.00 | 0.10 | 0.10 | 62 | 1012.0 |
| 20260905210501 | 32 | 146 | 0.0 | 0.0 | 0.00 | 0.10 | 0.10 | 59 | 1012.1 |
| 20260905210005 | 32 | 110 | 0.0 | 0.0 | 0.00 | 0.10 | 0.10 | 60 | 1012.3 |
| 20260905205500 | 32 | 114 | 0.0 | 0.0 | 0.00 | 0.10 | 0.10 | 59 | 1012.3 |
| 20260905205001 | 32 | 137 | 0.0 | 0.0 | 0.00 | 0.10 | 0.10 | 59 | 1012.3 |
| 20260905204500 | 32 | 134 | 0.0 | 0.0 | 0.00 | 0.10 | 0.10 | 60 | 1012.3 |
| 20260905204002 | 32 | 124 | 0.0 | 0.0 | 0.00 | 0.10 | 0.10 | 60 | 1012.2 |
| 20260905203500 | 32 | 93 | 0.0 | 0.0 | 0.00 | 0.10 | 0.10 | 61 | 1012.0 |